,,,PA_Meas_PMT16A,,PR_Meas_QMR101_102,,RH_Meas_QMH101,,SR_Meas_QMS101,,TA_Meas_QMH101,,GenWind,,GenWind,
date,time,status,PA,status,PR,status,RH,status,SR,status,TA,status,DirAvg,status,SpdAvg,
2011-08-01, 00:00:04,VALID,1000.88,VALID,0,VALID,81.9421,VALID,0,VALID,24.7941,VALID,131,VALID,1.21914,
2011-08-01, 00:01:04,VALID,1000.87,VALID,0,VALID,81.9726,VALID,0,VALID,24.7746,VALID,137,VALID,1.74805,
2011-08-01, 00:02:04,VALID,1000.86,VALID,0,VALID,82.11,VALID,0,VALID,24.7337,VALID,130,VALID,1.47812,
2011-08-01, 00:03:04,VALID,1000.88,VALID,0,VALID,82.3007,VALID,0,VALID,24.7142,VALID,130,VALID,1.60117,
2011-08-01, 00:04:04,VALID,1000.91,VALID,0,VALID,82.583,VALID,0,VALID,24.677,VALID,132,VALID,1.67188,
2011-08-01, 00:05:04,VALID,1000.9,VALID,0,VALID,82.8272,VALID,0,VALID,24.638,VALID,133,VALID,1.59727,
2011-08-01, 00:06:04,VALID,1000.93,VALID,0,VALID,82.9874,VALID,0,VALID,24.6184,VALID,131,VALID,1.51211,
2011-08-01, 00:07:04,VALID,1000.94,VALID,0,VALID,83.1934,VALID,0,VALID,24.5989,VALID,127,VALID,1.68359,
2011-08-01, 00:08:04,VALID,1000.96,VALID,0,VALID,83.3689,VALID,0,VALID,24.5794,VALID,132,VALID,1.70547,
2011-08-01, 00:09:04,VALID,1000.98,VALID,0,VALID,83.5062,VALID,0,VALID,24.5404,VALID,128,VALID,1.49961,
2011-08-01, 00:10:04,VALID,1001,VALID,0,VALID,83.6512,VALID,0,VALID,24.5209,VALID,139,VALID,1.58438,
2011-08-01, 00:11:04,VALID,1001,VALID,0,VALID,83.7503,VALID,0,VALID,24.5013,VALID,138,VALID,1.42617,
2011-08-01, 00:12:04,VALID,1001.03,VALID,0,VALID,83.8495,VALID,0,VALID,24.4409,VALID,124,VALID,1.20156,
2011-08-01, 00:13:04,VALID,1000.97,VALID,0,VALID,83.9792,VALID,0,VALID,24.4428,VALID,133,VALID,1.14883,
2011-08-01, 00:14:04,VALID,1000.99,VALID,0,VALID,84.1623,VALID,0,VALID,24.3824,VALID,128,VALID,1.22148,
2011-08-01, 00:15:04,VALID,1000.98,VALID,0,VALID,84.2768,VALID,0,VALID,24.3842,VALID,128,VALID,0.916016,
2011-08-01, 00:16:04,VALID,1000.96,VALID,0,VALID,84.3378,VALID,0,VALID,24.3452,VALID,128,VALID,0.244531,
2011-08-01, 00:17:04,VALID,1000.95,VALID,0,VALID,84.498,VALID,0,VALID,24.3043,VALID,150,VALID,0.818359,
2011-08-01, 00:18:04,VALID,1000.91,VALID,0,VALID,84.6812,VALID,0,VALID,24.3257,VALID,151,VALID,0.807422,
2011-08-01, 00:19:04,VALID,1000.95,VALID,0,VALID,84.6506,VALID,0,VALID,24.3257,VALID,151,VALID,1.06484,
2011-08-01, 00:20:04,VALID,1000.93,VALID,0,VALID,84.5286,VALID,0,VALID,24.3433,VALID,151,VALID,0.697656,
2011-08-01, 00:21:04,VALID,1000.91,VALID,0,VALID,84.3531,VALID,0,VALID,24.3842,VALID,134,VALID,0.70625,
2011-08-01, 00:22:04,VALID,1000.91,VALID,0,VALID,84.1929,VALID,0,VALID,24.4233,VALID,109,VALID,0.697266,
2011-08-01, 00:23:04,VALID,1000.89,VALID,0,VALID,83.8877,VALID,0,VALID,24.4037,VALID,109,VALID,1.10312,
2011-08-01, 00:24:04,VALID,1000.89,VALID,0,VALID,84.0174,VALID,0,VALID,24.4037,VALID,110,VALID,1.24766,
2011-08-01, 00:25:04,VALID,1000.89,VALID,0,VALID,84.086,VALID,0,VALID,24.3824,VALID,119,VALID,1.2332,
2011-08-01, 00:26:04,VALID,1000.87,VALID,0,VALID,84.1395,VALID,0,VALID,24.3842,VALID,123,VALID,1.23398,
2011-08-01, 00:27:04,VALID,1000.87,VALID,0,VALID,84.2463,VALID,0,VALID,24.3433,VALID,145,VALID,1.29258,
2011-08-01, 00:28:04,VALID,1000.89,VALID,0,VALID,84.4904,VALID,0,VALID,24.3043,VALID,149,VALID,1.40742,
2011-08-01, 00:29:04,VALID,1000.84,VALID,0,VALID,84.582,VALID,0,VALID,24.2848,VALID,159,VALID,1.71641,
2011-08-01, 00:30:04,VALID,1000.85,VALID,0,VALID,84.7956,VALID,0,VALID,24.3257,VALID,166,VALID,1.6957,
2011-08-01, 00:31:04,VALID,1000.82,VALID,0,VALID,84.8185,VALID,0,VALID,24.3238,VALID,143,VALID,1.20938,
2011-08-01, 00:32:04,VALID,1000.82,VALID,0,VALID,84.5972,VALID,0,VALID,24.3257,VALID,143,VALID,1.41992,
2011-08-01, 00:33:04,VALID,1000.74,VALID,0,VALID,84.376,VALID,0,VALID,24.3433,VALID,136,VALID,1.46172,
2011-08-01, 00:34:04,VALID,1000.74,VALID,0,VALID,84.2157,VALID,0,VALID,24.3433,VALID,140,VALID,1.41406,
2011-08-01, 00:35:04,VALID,1000.67,VALID,0,VALID,84.376,VALID,0,VALID,24.3452,VALID,152,VALID,1.55859,
2011-08-01, 00:36:05,VALID,1000.66,VALID,0,VALID,84.5133,VALID,0,VALID,24.3257,VALID,139,VALID,1.45938,
2011-08-01, 00:37:05,VALID,1000.62,VALID,0,VALID,84.5743,VALID,0,VALID,24.3257,VALID,137,VALID,1.62148,
2011-08-01, 00:38:05,VALID,1000.62,VALID,0,VALID,84.2463,VALID,0,VALID,24.3257,VALID,142,VALID,1.68242,
2011-08-01, 00:39:05,VALID,1000.6,VALID,0,VALID,84.1852,VALID,0,VALID,24.3647,VALID,147,VALID,1.44297,
2011-08-01, 00:40:05,VALID,1000.6,VALID,0,VALID,84.1929,VALID,0,VALID,24.3842,VALID,158,VALID,1.44727,
2011-08-01, 00:41:05,VALID,1000.58,VALID,0,VALID,84.1242,VALID,0,VALID,24.4037,VALID,157,VALID,1.68789,
2011-08-01, 00:42:05,VALID,1000.61,VALID,0,VALID,84.0021,VALID,0,VALID,24.4019,VALID,156,VALID,1.9125,
2011-08-01, 00:43:05,VALID,1000.62,VALID,0,VALID,83.9182,VALID,0.112286,VALID,24.4214,VALID,156,VALID,1.50898,
2011-08-01, 00:44:05,VALID,1000.62,VALID,0,VALID,83.9487,VALID,0,VALID,24.4214,VALID,158,VALID,1.43516,
2011-08-01, 00:45:05,VALID,1000.62,VALID,0,VALID,84.0021,VALID,0,VALID,24.4019,VALID,154,VALID,1.58477,
2011-08-01, 00:46:05,VALID,1000.65,VALID,0,VALID,83.9106,VALID,0,VALID,24.4428,VALID,154,VALID,1.7043,
2011-08-01, 00:47:05,VALID,1000.69,VALID,0,VALID,83.9106,VALID,0,VALID,24.4409,VALID,151,VALID,1.91758,
2011-08-01, 00:48:05,VALID,1000.69,VALID,0,VALID,83.9563,VALID,0,VALID,24.4604,VALID,156,VALID,1.37148,
2011-08-01, 00:49:05,VALID,1000.68,VALID,0,VALID,84.0403,VALID,0,VALID,24.4623,VALID,160,VALID,1.75977,
2011-08-01, 00:50:05,VALID,1000.66,VALID,0,VALID,84.0937,VALID,0,VALID,24.4623,VALID,161,VALID,1.13359,
2011-08-01, 00:51:05,VALID,1000.65,VALID,0,VALID,84.1013,VALID,0,VALID,24.4214,VALID,161,VALID,1.52578,
2011-08-01, 00:52:05,VALID,1000.64,VALID,0,VALID,84.0937,VALID,0,VALID,24.4214,VALID,167,VALID,1.68477,
2011-08-01, 00:53:05,VALID,1000.58,VALID,0,VALID,84.1013,VALID,0,VALID,24.4214,VALID,151,VALID,1.50352,
2011-08-01, 00:54:05,VALID,1000.57,VALID,0,VALID,84.0403,VALID,0.112286,VALID,24.4409,VALID,139,VALID,1.25469,
2011-08-01, 00:55:05,VALID,1000.58,VALID,0,VALID,84.086,VALID,0,VALID,24.4409,VALID,144,VALID,1.30664,
2011-08-01, 00:56:05,VALID,1000.57,VALID,0,VALID,84.1929,VALID,0,VALID,24.4214,VALID,150,VALID,1.52344,
2011-08-01, 00:57:05,VALID,1000.61,VALID,0,VALID,84.2157,VALID,0,VALID,24.4214,VALID,147,VALID,1.50781,
2011-08-01, 00:58:05,VALID,1000.63,VALID,0,VALID,84.1776,VALID,0,VALID,24.4214,VALID,140,VALID,1.55,
2011-08-01, 00:59:05,VALID,1000.62,VALID,0,VALID,84.1013,VALID,0,VALID,24.4409,VALID,127,VALID,1.50039,
2011-08-01, 01:00:05,VALID,1000.64,VALID,0,VALID,84.0479,VALID,0,VALID,24.4409,VALID,126,VALID,1.23867,
2011-08-01, 01:01:05,VALID,1000.64,VALID,0,VALID,84.0937,VALID,0,VALID,24.4623,VALID,126,VALID,1.09609,
2011-08-01, 01:02:05,VALID,1000.67,VALID,0,VALID,84.17,VALID,0,VALID,24.4409,VALID,130,VALID,1.37109,
2011-08-01, 01:03:05,VALID,1000.63,VALID,0,VALID,84.1166,VALID,0,VALID,24.4409,VALID,132,VALID,1.55586,
2011-08-01, 01:04:05,VALID,1000.61,VALID,0,VALID,84.2157,VALID,0,VALID,24.4214,VALID,144,VALID,1.95508,
2011-08-01, 01:05:05,VALID,1000.61,VALID,0,VALID,84.17,VALID,0.112286,VALID,24.4604,VALID,137,VALID,1.53359,
2011-08-01, 01:06:05,VALID,1000.61,VALID,0,VALID,84.1013,VALID,0.112286,VALID,24.5013,VALID,121,VALID,1.67344,
2011-08-01, 01:07:05,VALID,1000.62,VALID,0,VALID,84.025,VALID,0,VALID,24.48,VALID,137,VALID,1.32773,
2011-08-01, 01:08:05,VALID,1000.59,VALID,0,VALID,84.1318,VALID,0,VALID,24.4604,VALID,131,VALID,1.30938,
2011-08-01, 01:09:05,VALID,1000.59,VALID,0,VALID,84.2386,VALID,0,VALID,24.4428,VALID,133,VALID,1.02031,
2011-08-01, 01:10:05,VALID,1000.59,VALID,0,VALID,84.3912,VALID,0.112286,VALID,24.3824,VALID,130,VALID,1.00234,
2011-08-01, 01:11:05,VALID,1000.59,VALID,0,VALID,84.582,VALID,0,VALID,24.3629,VALID,130,VALID,1.13437,
2011-08-01, 01:12:05,VALID,1000.61,VALID,0,VALID,84.7269,VALID,0.112286,VALID,24.3433,VALID,141,VALID,1.2332,
2011-08-01, 01:13:05,VALID,1000.58,VALID,0,VALID,84.7956,VALID,0,VALID,24.3238,VALID,140,VALID,1.3293,
2011-08-01, 01:14:05,VALID,1000.6,VALID,0,VALID,84.788,VALID,0,VALID,24.3257,VALID,136,VALID,1.13242,
2011-08-01, 01:15:05,VALID,1000.59,VALID,0,VALID,84.8719,VALID,0,VALID,24.2848,VALID,150,VALID,1.35977,
2011-08-01, 01:16:05,VALID,1000.6,VALID,0,VALID,84.788,VALID,0,VALID,24.3452,VALID,154,VALID,1.17969,
2011-08-01, 01:17:05,VALID,1000.58,VALID,0,VALID,84.6583,VALID,0,VALID,24.3629,VALID,154,VALID,1.05938,
2011-08-01, 01:18:05,VALID,1000.58,VALID,0,VALID,84.5743,VALID,0,VALID,24.3824,VALID,154,VALID,0.971875,
2011-08-01, 01:19:05,VALID,1000.53,VALID,0,VALID,84.376,VALID,0,VALID,24.4214,VALID,154,VALID,0.742188,
2011-08-01, 01:20:05,VALID,1000.56,VALID,0,VALID,84.231,VALID,0,VALID,24.4428,VALID,154,VALID,0.469531,
2011-08-01, 01:21:05,VALID,1000.56,VALID,0,VALID,84.2615,VALID,0,VALID,24.4037,VALID,154,VALID,0.475,
2011-08-01, 01:22:05,VALID,1000.56,VALID,0,VALID,84.3836,VALID,0,VALID,24.3629,VALID,154,VALID,0.619922,
2011-08-01, 01:23:05,VALID,1000.53,VALID,0,VALID,84.5209,VALID,0,VALID,24.3433,VALID,154,VALID,0.409375,
2011-08-01, 01:24:05,VALID,1000.54,VALID,0,VALID,84.6201,VALID,0,VALID,24.3238,VALID,154,VALID,0.491406,
2011-08-01, 01:25:05,VALID,1000.53,VALID,0,VALID,84.6125,VALID,0,VALID,24.3238,VALID,154,VALID,0.505469,
2011-08-01, 01:26:05,VALID,1000.52,VALID,0,VALID,84.7269,VALID,0,VALID,24.3043,VALID,154,VALID,0.441797,
2011-08-01, 01:27:05,VALID,1000.53,VALID,0,VALID,84.6888,VALID,0,VALID,24.3238,VALID,154,VALID,0.672266,
2011-08-01, 01:28:05,VALID,1000.53,VALID,0,VALID,84.6354,VALID,0,VALID,24.3238,VALID,154,VALID,0.887109,
2011-08-01, 01:29:05,VALID,1000.51,VALID,0,VALID,84.6735,VALID,0,VALID,24.2653,VALID,134,VALID,0.783203,
2011-08-01, 01:30:05,VALID,1000.52,VALID,0,VALID,84.994,VALID,0,VALID,24.2671,VALID,132,VALID,0.353906,
2011-08-01, 01:31:05,VALID,1000.5,VALID,0,VALID,85.1313,VALID,0,VALID,24.2476,VALID,132,VALID,0.258984,
2011-08-01, 01:32:05,VALID,1000.46,VALID,0,VALID,85.1542,VALID,0,VALID,24.2281,VALID,143,VALID,0.555078,
2011-08-01, 01:33:05,VALID,1000.43,VALID,0,VALID,85.2076,VALID,0,VALID,24.2086,VALID,143,VALID,0.508984,
2011-08-01, 01:34:05,VALID,1000.36,VALID,0,VALID,85.3678,VALID,0,VALID,24.2086,VALID,143,VALID,0.532812,
2011-08-01, 01:35:05,VALID,1000.31,VALID,0,VALID,85.4212,VALID,0,VALID,24.2299,VALID,143,VALID,0.549219,
2011-08-01, 01:36:05,VALID,1000.25,VALID,0,VALID,85.3449,VALID,0,VALID,24.2281,VALID,143,VALID,0.548437,
2011-08-01, 01:37:05,VALID,1000.24,VALID,0,VALID,85.2534,VALID,0,VALID,24.2299,VALID,143,VALID,0.664844,
2011-08-01, 01:38:05,VALID,1000.19,VALID,0,VALID,85.2305,VALID,0,VALID,24.2281,VALID,143,VALID,0.525391,
2011-08-01, 01:39:05,VALID,1000.19,VALID,0,VALID,85.3678,VALID,0,VALID,24.2299,VALID,151,VALID,0.792188,
2011-08-01, 01:40:05,VALID,1000.17,VALID,0,VALID,85.5128,VALID,0,VALID,24.2476,VALID,172,VALID,1.37031,
2011-08-01, 01:41:05,VALID,1000.16,VALID,0,VALID,85.3678,VALID,0,VALID,24.2866,VALID,173,VALID,1.10547,
2011-08-01, 01:42:05,VALID,1000.15,VALID,0,VALID,85.1694,VALID,0,VALID,24.3257,VALID,173,VALID,1.30469,
2011-08-01, 01:43:05,VALID,1000.16,VALID,0,VALID,84.9024,VALID,0,VALID,24.3647,VALID,170,VALID,1.4375,
2011-08-01, 01:44:05,VALID,1000.15,VALID,0,VALID,84.498,VALID,0,VALID,24.4446,VALID,163,VALID,1.26914,
2011-08-01, 01:45:05,VALID,1000.17,VALID,0,VALID,84.2997,VALID,0,VALID,24.4623,VALID,143,VALID,1.36133,
2011-08-01, 01:46:05,VALID,1000.15,VALID,0,VALID,84.2997,VALID,0,VALID,24.4428,VALID,121,VALID,1.54766,
2011-08-01, 01:47:05,VALID,1000.18,VALID,0,VALID,84.4141,VALID,0,VALID,24.4428,VALID,119,VALID,1.51953,
2011-08-01, 01:48:05,VALID,1000.13,VALID,0,VALID,84.3455,VALID,0,VALID,24.4446,VALID,126,VALID,1.85156,
2011-08-01, 01:49:05,VALID,1000.18,VALID,0,VALID,84.3607,VALID,0,VALID,24.4623,VALID,124,VALID,1.53086,
2011-08-01, 01:50:05,VALID,1000.18,VALID,0,VALID,84.4828,VALID,0,VALID,24.4623,VALID,135,VALID,1.58203,
2011-08-01, 01:51:05,VALID,1000.2,VALID,0,VALID,84.6735,VALID,0,VALID,24.4446,VALID,135,VALID,1.51992,
2011-08-01, 01:52:05,VALID,1000.16,VALID,0,VALID,84.8261,VALID,0,VALID,24.4037,VALID,124,VALID,1.62852,
2011-08-01, 01:53:05,VALID,1000.14,VALID,0,VALID,84.9711,VALID,0,VALID,24.3647,VALID,131,VALID,1.18867,
2011-08-01, 01:54:05,VALID,1000.13,VALID,0,VALID,85.0245,VALID,0,VALID,24.3861,VALID,142,VALID,1.07187,
2011-08-01, 01:55:05,VALID,1000.1,VALID,0,VALID,84.9558,VALID,0,VALID,24.3666,VALID,138,VALID,1.21211,
2011-08-01, 01:56:05,VALID,1000.11,VALID,0,VALID,84.8337,VALID,0,VALID,24.3861,VALID,149,VALID,1.15859,
2011-08-01, 01:57:05,VALID,1000.04,VALID,0,VALID,84.7193,VALID,0,VALID,24.4037,VALID,163,VALID,1.33398,
2011-08-01, 01:58:05,VALID,1000.02,VALID,0,VALID,84.5362,VALID,0,VALID,24.4428,VALID,143,VALID,0.703906,
2011-08-01, 01:59:05,VALID,999.961,VALID,0,VALID,84.3989,VALID,0,VALID,24.4428,VALID,163,VALID,0.541016,
2011-08-01, 02:00:05,VALID,999.962,VALID,0,VALID,84.3302,VALID,0,VALID,24.4409,VALID,163,VALID,0.623047,
2011-08-01, 02:01:05,VALID,999.948,VALID,0,VALID,84.292,VALID,0,VALID,24.4409,VALID,163,VALID,0.388672,
2011-08-01, 02:02:05,VALID,999.944,VALID,0,VALID,84.2997,VALID,0,VALID,24.4214,VALID,163,VALID,0,
2011-08-01, 02:03:05,VALID,999.954,VALID,0,VALID,84.5972,VALID,0,VALID,24.3824,VALID,163,VALID,0.385938,
2011-08-01, 02:04:05,VALID,999.978,VALID,0,VALID,84.9329,VALID,0,VALID,24.3062,VALID,163,VALID,0.258203,
2011-08-01, 02:05:05,VALID,999.939,VALID,0,VALID,85.1847,VALID,0,VALID,24.2671,VALID,163,VALID,0.569531,
2011-08-01, 02:06:05,VALID,999.957,VALID,0,VALID,85.3297,VALID,0,VALID,24.2263,VALID,163,VALID,0.352734,
2011-08-01, 02:07:05,VALID,999.96,VALID,0,VALID,85.4975,VALID,0,VALID,24.1872,VALID,163,VALID,0.580078,
2011-08-01, 02:08:05,VALID,999.931,VALID,0,VALID,85.6959,VALID,0,VALID,24.1677,VALID,163,VALID,0.955859,
2011-08-01, 02:09:05,VALID,999.875,VALID,0,VALID,85.6196,VALID,0,VALID,24.1872,VALID,163,VALID,0.819531,
2011-08-01, 02:10:05,VALID,999.832,VALID,0,VALID,85.5128,VALID,0,VALID,24.2067,VALID,138,VALID,1.02344,
2011-08-01, 02:11:05,VALID,999.817,VALID,0,VALID,85.4289,VALID,0,VALID,24.2067,VALID,132,VALID,0.795313,
2011-08-01, 02:12:05,VALID,999.8,VALID,0,VALID,85.4212,VALID,0,VALID,24.2476,VALID,132,VALID,0.6875,
2011-08-01, 02:13:05,VALID,999.791,VALID,0,VALID,85.3831,VALID,0,VALID,24.2263,VALID,132,VALID,0.480078,
2011-08-01, 02:14:05,VALID,999.763,VALID,0,VALID,85.4212,VALID,0,VALID,24.2067,VALID,132,VALID,0.545703,
2011-08-01, 02:15:05,VALID,999.733,VALID,0,VALID,85.4899,VALID,0,VALID,24.2086,VALID,132,VALID,0.287109,
2011-08-01, 02:16:05,VALID,999.722,VALID,0,VALID,85.5967,VALID,0,VALID,24.2086,VALID,110,VALID,0.426562,
2011-08-01, 02:17:05,VALID,999.705,VALID,0,VALID,85.528,VALID,0,VALID,24.1891,VALID,110,VALID,0.294531,
2011-08-01, 02:18:05,VALID,999.687,VALID,0,VALID,85.612,VALID,0,VALID,24.15,VALID,134,VALID,0.814844,
2011-08-01, 02:19:05,VALID,999.652,VALID,0,VALID,85.7417,VALID,0,VALID,24.1324,VALID,120,VALID,0.51875,
2011-08-01, 02:20:05,VALID,999.651,VALID,0,VALID,85.7798,VALID,0,VALID,24.0933,VALID,120,VALID,0.262891,
2011-08-01, 02:21:05,VALID,999.623,VALID,0,VALID,86.0316,VALID,0,VALID,24.0543,VALID,120,VALID,0.269141,
2011-08-01, 02:22:05,VALID,999.6,VALID,0,VALID,86.2605,VALID,0,VALID,23.9939,VALID,120,VALID,0.353516,
2011-08-01, 02:23:05,VALID,999.618,VALID,0,VALID,86.5657,VALID,0,VALID,23.8963,VALID,120,VALID,0.152734,
2011-08-01, 02:24:05,VALID,999.592,VALID,0,VALID,86.8174,VALID,0,VALID,23.8573,VALID,120,VALID,0,
2011-08-01, 02:25:05,VALID,999.61,VALID,0,VALID,87.1913,VALID,0,VALID,23.8378,VALID,120,VALID,0.717969,
2011-08-01, 02:26:05,VALID,999.585,VALID,0,VALID,87.4431,VALID,0,VALID,23.8573,VALID,135,VALID,0.803906,
2011-08-01, 02:27:05,VALID,999.585,VALID,0,VALID,87.3134,VALID,0,VALID,23.9177,VALID,140,VALID,0.660547,
2011-08-01, 02:28:05,VALID,999.62,VALID,0,VALID,86.9853,VALID,0,VALID,23.9957,VALID,140,VALID,0.783984,
2011-08-01, 02:29:05,VALID,999.64,VALID,0,VALID,86.6115,VALID,0,VALID,24.0738,VALID,151,VALID,0.691797,
2011-08-01, 02:30:05,VALID,999.62,VALID,0,VALID,86.2834,VALID,0,VALID,24.111,VALID,151,VALID,0.880469,
2011-08-01, 02:31:05,VALID,999.653,VALID,0,VALID,85.818,VALID,0,VALID,24.1891,VALID,138,VALID,0.994922,
2011-08-01, 02:32:05,VALID,999.692,VALID,0,VALID,85.406,VALID,0,VALID,24.2476,VALID,128,VALID,1.10156,
2011-08-01, 02:33:05,VALID,999.701,VALID,0,VALID,85.1466,VALID,0,VALID,24.3062,VALID,129,VALID,1.74141,
2011-08-01, 02:34:05,VALID,999.693,VALID,0,VALID,84.91,VALID,0,VALID,24.3647,VALID,128,VALID,1.08203,
2011-08-01, 02:35:05,VALID,999.714,VALID,0,VALID,84.7727,VALID,0,VALID,24.3842,VALID,129,VALID,1.3043,
2011-08-01, 02:36:05,VALID,999.712,VALID,0,VALID,84.643,VALID,0,VALID,24.4037,VALID,138,VALID,1.52734,
2011-08-01, 02:37:05,VALID,999.736,VALID,0,VALID,84.5972,VALID,0,VALID,24.4446,VALID,146,VALID,1.34141,
2011-08-01, 02:38:05,VALID,999.756,VALID,0,VALID,84.437,VALID,0,VALID,24.4642,VALID,146,VALID,1.17695,
2011-08-01, 02:39:05,VALID,999.754,VALID,0,VALID,84.376,VALID,0,VALID,24.4623,VALID,146,VALID,1.06875,
2011-08-01, 02:40:05,VALID,999.759,VALID,0,VALID,84.292,VALID,0,VALID,24.4818,VALID,155,VALID,1.60078,
2011-08-01, 02:41:05,VALID,999.783,VALID,0,VALID,84.3226,VALID,0,VALID,24.4818,VALID,147,VALID,1.78672,
2011-08-01, 02:42:05,VALID,999.768,VALID,0,VALID,84.3836,VALID,0,VALID,24.5013,VALID,135,VALID,1.69258,
2011-08-01, 02:43:05,VALID,999.752,VALID,0,VALID,84.437,VALID,0,VALID,24.5032,VALID,141,VALID,1.62891,
2011-08-01, 02:44:05,VALID,999.744,VALID,0,VALID,84.5667,VALID,0,VALID,24.4818,VALID,135,VALID,1.58047,
2011-08-01, 02:45:05,VALID,999.803,VALID,0,VALID,84.7193,VALID,0,VALID,24.4428,VALID,125,VALID,2.15664,
2011-08-01, 02:46:05,VALID,999.8,VALID,0,VALID,84.5057,VALID,0,VALID,24.4818,VALID,129,VALID,2.02891,
2011-08-01, 02:47:05,VALID,999.796,VALID,0,VALID,84.2768,VALID,0,VALID,24.5227,VALID,122,VALID,1.85742,
2011-08-01, 02:48:05,VALID,999.846,VALID,0,VALID,84.2005,VALID,0,VALID,24.5209,VALID,145,VALID,1.6043,
2011-08-01, 02:49:05,VALID,999.828,VALID,0,VALID,84.2234,VALID,0,VALID,24.5404,VALID,137,VALID,1.97773,
2011-08-01, 02:50:05,VALID,999.816,VALID,0,VALID,84.2615,VALID,0,VALID,24.5618,VALID,138,VALID,1.47031,
2011-08-01, 02:51:05,VALID,999.815,VALID,0,VALID,84.2997,VALID,0,VALID,24.5209,VALID,133,VALID,1.54258,
2011-08-01, 02:52:05,VALID,999.794,VALID,0,VALID,84.3531,VALID,0,VALID,24.5209,VALID,146,VALID,1.58398,
2011-08-01, 02:53:05,VALID,999.765,VALID,0,VALID,84.2768,VALID,0,VALID,24.5422,VALID,155,VALID,1.19766,
2011-08-01, 02:54:05,VALID,999.75,VALID,0,VALID,84.17,VALID,0,VALID,24.5404,VALID,174,VALID,1.15156,
2011-08-01, 02:55:05,VALID,999.749,VALID,0,VALID,84.0555,VALID,0,VALID,24.5618,VALID,170,VALID,1.65977,
2011-08-01, 02:56:05,VALID,999.742,VALID,0,VALID,83.5443,VALID,0,VALID,24.6203,VALID,152,VALID,1.66055,
2011-08-01, 02:57:05,VALID,999.741,VALID,0,VALID,83.3002,VALID,0,VALID,24.6575,VALID,149,VALID,2.36172,
2011-08-01, 02:58:05,VALID,999.695,VALID,0,VALID,83.3765,VALID,0,VALID,24.677,VALID,133,VALID,1.59453,
2011-08-01, 02:59:05,VALID,999.667,VALID,0,VALID,83.5443,VALID,0,VALID,24.638,VALID,136,VALID,1.75352,
2011-08-01, 03:00:05,VALID,999.625,VALID,0,VALID,83.7427,VALID,0,VALID,24.5794,VALID,132,VALID,1.52773,
2011-08-01, 03:01:05,VALID,999.606,VALID,0,VALID,83.8877,VALID,0,VALID,24.5404,VALID,136,VALID,2.12656,
2011-08-01, 03:02:05,VALID,999.602,VALID,0,VALID,83.9792,VALID,0,VALID,24.5404,VALID,133,VALID,1.57695,
2011-08-01, 03:03:05,VALID,999.58,VALID,0,VALID,84.0937,VALID,0,VALID,24.5013,VALID,136,VALID,1.93398,
2011-08-01, 03:04:05,VALID,999.552,VALID,0,VALID,83.9716,VALID,0,VALID,24.5209,VALID,137,VALID,1.84844,
2011-08-01, 03:05:05,VALID,999.526,VALID,0,VALID,83.8953,VALID,0,VALID,24.5209,VALID,126,VALID,1.96094,
2011-08-01, 03:06:05,VALID,999.544,VALID,0,VALID,83.6512,VALID,0,VALID,24.5599,VALID,121,VALID,2.00664,
2011-08-01, 03:07:05,VALID,999.57,VALID,0,VALID,83.5215,VALID,0,VALID,24.6008,VALID,123,VALID,1.85664,
2011-08-01, 03:08:05,VALID,999.571,VALID,0,VALID,83.3155,VALID,0,VALID,24.5599,VALID,131,VALID,1.88477,
2011-08-01, 03:09:05,VALID,999.565,VALID,0,VALID,83.2849,VALID,0,VALID,24.5813,VALID,131,VALID,2.12305,
2011-08-01, 03:10:05,VALID,999.562,VALID,0,VALID,83.3536,VALID,0,VALID,24.5794,VALID,123,VALID,1.875,
2011-08-01, 03:11:05,VALID,999.571,VALID,0,VALID,83.4604,VALID,0,VALID,24.5813,VALID,129,VALID,1.95039,
2011-08-01, 03:12:05,VALID,999.542,VALID,0,VALID,83.6054,VALID,0,VALID,24.5599,VALID,129,VALID,1.91914,
2011-08-01, 03:13:05,VALID,999.516,VALID,0,VALID,83.4833,VALID,0,VALID,24.5618,VALID,134,VALID,1.88125,
2011-08-01, 03:14:05,VALID,999.515,VALID,0,VALID,83.468,VALID,0,VALID,24.5599,VALID,132,VALID,1.93828,
2011-08-01, 03:15:05,VALID,999.536,VALID,0,VALID,83.4909,VALID,0,VALID,24.5385,VALID,123,VALID,1.86289,
2011-08-01, 03:16:05,VALID,999.493,VALID,0,VALID,83.7122,VALID,0,VALID,24.5209,VALID,120,VALID,1.92266,
2011-08-01, 03:17:05,VALID,999.495,VALID,0,VALID,83.8877,VALID,0,VALID,24.48,VALID,121,VALID,1.73359,
2011-08-01, 03:18:05,VALID,999.493,VALID,0,VALID,83.9334,VALID,0,VALID,24.4818,VALID,118,VALID,1.75117,
2011-08-01, 03:19:05,VALID,999.497,VALID,0,VALID,83.9945,VALID,0,VALID,24.48,VALID,118,VALID,1.24414,
2011-08-01, 03:20:05,VALID,999.51,VALID,0,VALID,84.1089,VALID,0,VALID,24.4409,VALID,120,VALID,1.00312,
2011-08-01, 03:21:05,VALID,999.513,VALID,0,VALID,84.2157,VALID,0,VALID,24.4019,VALID,126,VALID,0.718359,
2011-08-01, 03:22:04,VALID,999.498,VALID,0,VALID,84.3302,VALID,0,VALID,24.4037,VALID,135,VALID,0.645703,
2011-08-01, 03:23:04,VALID,999.484,VALID,0,VALID,84.3302,VALID,0,VALID,24.3629,VALID,125,VALID,0.336719,
2011-08-01, 03:24:04,VALID,999.483,VALID,0,VALID,84.4599,VALID,0,VALID,24.3238,VALID,125,VALID,0.376953,
2011-08-01, 03:25:04,VALID,999.504,VALID,0,VALID,84.8032,VALID,0,VALID,24.3257,VALID,116,VALID,0.7875,
2011-08-01, 03:26:04,VALID,999.447,VALID,0,VALID,84.9177,VALID,0,VALID,24.2848,VALID,116,VALID,0.967188,
2011-08-01, 03:27:04,VALID,999.478,VALID,0,VALID,84.9253,VALID,0,VALID,24.3043,VALID,116,VALID,0.863281,
2011-08-01, 03:28:04,VALID,999.43,VALID,0,VALID,84.9863,VALID,0,VALID,24.2866,VALID,134,VALID,0.630859,
2011-08-01, 03:29:04,VALID,999.423,VALID,0,VALID,85.2305,VALID,0,VALID,24.2263,VALID,134,VALID,0.917578,
2011-08-01, 03:30:04,VALID,999.408,VALID,0,VALID,85.2534,VALID,0,VALID,24.2458,VALID,133,VALID,1.36719,
2011-08-01, 03:31:04,VALID,999.392,VALID,0,VALID,84.9863,VALID,0,VALID,24.2653,VALID,134,VALID,0.763281,
2011-08-01, 03:32:04,VALID,999.393,VALID,0,VALID,84.9787,VALID,0,VALID,24.2653,VALID,134,VALID,0.869141,
2011-08-01, 03:33:04,VALID,999.347,VALID,0,VALID,84.9406,VALID,0,VALID,24.2653,VALID,151,VALID,0.833984,
2011-08-01, 03:34:04,VALID,999.371,VALID,0,VALID,84.8948,VALID,0,VALID,24.3062,VALID,148,VALID,1.05703,
2011-08-01, 03:35:04,VALID,999.363,VALID,0,VALID,84.6659,VALID,0,VALID,24.3043,VALID,150,VALID,1.29453,
2011-08-01, 03:36:04,VALID,999.387,VALID,0,VALID,84.5591,VALID,0,VALID,24.3824,VALID,180,VALID,1.14531,
2011-08-01, 03:37:04,VALID,999.403,VALID,0,VALID,84.3455,VALID,0,VALID,24.4623,VALID,180,VALID,1.08047,
2011-08-01, 03:38:04,VALID,999.406,VALID,0,VALID,83.9716,VALID,0,VALID,24.4818,VALID,154,VALID,1.08398,
2011-08-01, 03:39:04,VALID,999.396,VALID,0,VALID,83.7732,VALID,0,VALID,24.4995,VALID,154,VALID,0.614062,
2011-08-01, 03:40:04,VALID,999.429,VALID,0,VALID,83.5138,VALID,0,VALID,24.5209,VALID,149,VALID,0.891016,
2011-08-01, 03:41:04,VALID,999.429,VALID,0,VALID,83.346,VALID,0,VALID,24.5404,VALID,143,VALID,1.30586,
2011-08-01, 03:42:04,VALID,999.412,VALID,0,VALID,83.2468,VALID,0,VALID,24.519,VALID,138,VALID,1.06367,
2011-08-01, 03:43:04,VALID,999.424,VALID,0,VALID,83.2086,VALID,0,VALID,24.519,VALID,129,VALID,1.51914,
2011-08-01, 03:44:04,VALID,999.402,VALID,0,VALID,83.2239,VALID,0,VALID,24.5404,VALID,123,VALID,1.01172,
2011-08-01, 03:45:04,VALID,999.423,VALID,0,VALID,83.14,VALID,0,VALID,24.5404,VALID,153,VALID,1.17305,